CUBESAT XI-V

Last updated on Thu Oct 30 2025 00:03:10 GMT+0000 (Coordinated Universal Time)

1 28895U 05043F 25302.38639492 .00002980 00000+0 48659-3 0 9993 2 28895 98.2695 88.7312 0013799 214.0634 145.9688 14.71622615 67796
UTC large
Height (km)
Speed (km/s)
/
Latitude / Longitude
Inclination (degrees)
Orbital Period (minutes)
Azimuth
Elevation
Range (km)
Doppler Factor

Next 0 passes for location: London (51.5072 / 0.1276)

Sorry there are no passes over London.